Location: Unspecified
(54.1780°N, 0.0000°E)
Time: 09:45:30
(UTC+00:00)

Transit 2A - Pass Details

Date: 23 June 2019
Orbit: 597 x 962 km, 66.7° (Epoch: 24 August)

Event Time Altitude Azimuth Distance (km) Brightness Sun altitude
Rises 08:32:36 0° 318° (NW) 3,507 9.0 40.6°
Reaches altitude 10° 08:35:14 10° 315° (NW) 2,513 8.4 40.9°
Maximum altitude 08:40:55 60° 237° (WSW) 921 6.8 41.7°
Drops below altitude 10° 08:46:01 10° 158° (SSE) 2,254 9.0 42.4°
Sets 08:48:17 0° 155° (SSE) 3,118 9.6 42.7°
